Voltar ao catálogo

CZ-6A DEB

AtivoPO
NORAD 61160·DEBRIS·🇨🇳 China

Lançado Aug 6, 2024 de Taiyuan Satellite Launch Center

Loading…

Próximas Passagens (próximas 24 horas)

TLE

ObsoletoSource: Space-Track

Época: Sep 2, 2026, 19:06 UTC

1 61160U 24140RE  26245.79608507  .00002885  00000-0  11421-2 0  9990
2 61160  88.9726 263.4948 0056814 320.6005  39.1063 14.27836687105529

Acompanhe CZ-6A DEB em tempo real com AllMySat

Download on the App Store